DW7325 Weather Reports


Display with metric or nautical units.
time (UTC)temp
F
wind
direction
speed
MPH
gust
MPH
rain 1hr
in
rain 24hr
in
rain mn
in
humidity
%
barometer
mb
20260505011434 68 138 0.0 0.0 0.00 0.00 0.00 52 1009.5
20260505011326 68 138 0.0 0.0 0.00 0.00 0.00 52 1009.5
20260505011218 68 138 0.0 3.0 0.00 0.00 0.00 52 1009.5
20260505011111 68 138 0.0 3.0 0.00 0.00 0.00 52 1009.5
20260505011005 68 101 0.0 2.0 0.00 0.00 0.00 52 1009.5
20260505010900 68 72 0.0 2.0 0.00 0.00 0.00 51 1009.5
20260505010753 68 42 0.0 1.0 0.00 0.00 0.00 51 1009.4
20260505010651 68 74 0.0 1.0 0.00 0.00 0.00 51 1009.4
20260505010544 68 204 0.0 1.0 0.00 0.00 0.00 51 1009.4
20260505005956 68 344 0.0 0.0 0.00 0.00 0.00 50 1009.3
20260505005851 68 344 0.0 0.0 0.00 0.00 0.00 50 1009.2
20260505005744 69 344 0.0 0.0 0.00 0.00 0.00 49 1009.2
20260505005637 69 344 0.0 0.0 0.00 0.00 0.00 50 1009.3
20260505005535 69 344 0.0 0.0 0.00 0.00 0.00 50 1009.2
20260505005432 69 344 0.0 1.0 0.00 0.00 0.00 50 1009.2
20260505005327 69 344 0.0 1.0 0.00 0.00 0.00 50 1009.2
20260505005224 69 344 0.0 2.0 0.00 0.00 0.00 50 1009.3
20260505005118 69 344 0.0 2.0 0.00 0.00 0.00 50 1009.2
20260505005014 69 344 0.0 2.0 0.00 0.00 0.00 50 1009.2
20260505004649 69 102 0.0 0.0 0.00 0.00 0.00 51 1009.3
20260505004322 69 102 0.0 2.0 0.00 0.00 0.00 49 1009.3
20260505004215 69 102 0.0 2.0 0.00 0.00 0.00 50 1009.3
20260505004108 69 102 0.0 2.0 0.00 0.00 0.00 49 1009.2
20260505004006 69 102 0.0 2.0 0.00 0.00 0.00 49 1009.2
20260505003903 69 102 0.0 2.0 0.00 0.00 0.00 48 1009.2
20260505003532 69 194 0.0 0.0 0.00 0.00 0.00 48 1009.2
20260505003427 69 194 0.0 2.0 0.00 0.00 0.00 48 1009.2
20260505003325 69 202 0.0 2.0 0.00 0.00 0.00 48 1009.2
20260505003002 69 223 0.0 0.0 0.00 0.00 0.00 48 1009.2
20260505002859 69 223 0.0 1.0 0.00 0.00 0.00 48 1009.3
20260505002530 70 38 0.0 0.0 0.00 0.00 0.00 48 1009.2
20260505002206 70 38 0.0 0.0 0.00 0.00 0.00 48 1009.2
20260505001843 70 38 0.0 1.0 0.00 0.00 0.00 47 1009.1
20260505001739 70 32 0.0 0.0 0.00 0.00 0.00 47 1009.1
20260505001526 70 32 0.0 0.0 0.00 0.00 0.00 47 1009.1
20260505001420 70 32 0.0 0.0 0.00 0.00 0.00 47 1009.1
20260505001318 70 32 0.0 0.0 0.00 0.00 0.00 47 1009.1
20260505001212 70 106 0.0 0.0 0.00 0.00 0.00 48 1009.1
20260505001104 70 332 0.0 1.0 0.00 0.00 0.00 48 1009.2
20260505000741 70 332 0.0 1.0 0.00 0.00 0.00 47 1009.1
20260505000417 70 132 0.0 1.0 0.00 0.00 0.00 47 1009.1
20260505000313 70 71 0.0 1.0 0.00 0.00 0.00 48 1009.1
20260505000211 70 71 0.0 1.0 0.00 0.00 0.00 47 1009.1
20260505000103 70 114 0.0 1.0 0.00 0.00 0.00 47 1009.1
20260504235957 70 155 0.0 1.0 0.00 0.00 0.00 47 1009.1
20260504235635 71 22 0.0 0.0 0.00 0.00 0.00 47 1009.0
20260504235048 71 119 0.0 2.0 0.00 0.00 0.00 47 1009.0
20260504234940 71 101 0.0 2.0 0.00 0.00 0.00 47 1009.1
20260504234615 71 230 0.0 2.0 0.00 0.00 0.00 46 1009.0
20260504234511 71 67 0.0 2.0 0.00 0.00 0.00 46 1009.0
20260504234407 71 94 0.0 2.0 0.00 0.00 0.00 46 1009.0
20260504234042 71 51 0.0 1.0 0.00 0.00 0.00 47 1009.0
20260504233935 71 323 0.0 1.0 0.00 0.00 0.00 46 1009.0
20260504233832 71 164 0.0 1.0 0.00 0.00 0.00 46 1009.1
20260504233729 71 127 0.0 1.0 0.00 0.00 0.00 46 1009.0
20260504233624 71 75 0.0 1.0 0.00 0.00 0.00 45 1009.0
20260504233518 71 244 0.0 0.0 0.00 0.00 0.00 46 1009.0
20260504233409 71 284 0.0 0.0 0.00 0.00 0.00 46 1009.0
20260504233306 71 46 0.0 1.0 0.00 0.00 0.00 46 1008.9
20260504233201 71 46 0.0 1.0 0.00 0.00 0.00 45 1008.9
20260504233056 71 167 0.0 0.0 0.00 0.00 0.00 45 1008.9
20260504232952 71 262 0.0 0.0 0.00 0.00 0.00 45 1008.9
20260504232846 71 267 0.0 3.0 0.00 0.00 0.00 45 1008.9
20260504232743 71 267 0.0 5.0 0.00 0.00 0.00 45 1008.8
20260504232638 71 43 0.0 5.0 0.00 0.00 0.00 45 1008.9
20260504232533 71 296 0.0 5.0 0.00 0.00 0.00 45 1008.8
20260504232428 71 296 0.0 5.0 0.00 0.00 0.00 45 1008.8
20260504232325 71 283 0.0 5.0 0.00 0.00 0.00 45 1008.8
20260504232222 71 74 0.0 5.0 0.00 0.00 0.00 45 1008.8
20260504232116 71 338 0.0 5.0 0.00 0.00 0.00 45 1008.8
20260504232010 71 157 0.0 5.0 0.00 0.00 0.00 44 1008.8
20260504231903 71 80 0.0 5.0 0.00 0.00 0.00 44 1008.8
20260504231801 71 80 0.0 8.0 0.00 0.00 0.00 44 1008.8
20260504231658 71 155 0.0 8.0 0.00 0.00 0.00 44 1008.9
20260504231549 71 53 0.0 8.0 0.00 0.00 0.00 45 1008.8
20260504231446 72 53 0.0 8.0 0.00 0.00 0.00 45 1008.8
20260504231340 72 205 0.0 8.0 0.00 0.00 0.00 44 1008.8
20260504231236 72 45 0.0 8.0 0.00 0.00 0.00 45 1008.8
20260504231133 72 91 0.0 8.0 0.00 0.00 0.00 45 1008.8
20260504231028 72 91 0.0 8.0 0.00 0.00 0.00 44 1008.8
20260504230924 72 163 1.0 8.0 0.00 0.00 0.00 45 1008.8
20260504230822 72 300 1.0 8.0 0.00 0.00 0.00 44 1008.8
20260504230714 72 182 1.0 8.0 0.00 0.00 0.00 45 1008.8
20260504230608 72 213 1.0 8.0 0.00 0.00 0.00 44 1008.8
20260504230505 72 33 1.0 8.0 0.00 0.00 0.00 44 1008.8
20260504230141 72 104 0.0 8.0 0.00 0.00 0.00 44 1008.7
20260504230039 72 80 0.0 8.0 0.00 0.00 0.00 44 1008.8
20260504225935 72 182 0.0 8.0 0.00 0.00 0.00 43 1008.8
20260504225830 72 332 0.0 8.0 0.00 0.00 0.00 42 1008.9
20260504225724 72 105 0.0 5.0 0.00 0.00 0.00 42 1008.8
20260504225618 72 204 0.0 3.0 0.00 0.00 0.00 43 1008.8
20260504225515 72 116 0.0 3.0 0.00 0.00 0.00 43 1008.8
20260504225410 72 94 0.0 3.0 0.00 0.00 0.00 43 1008.8
20260504225307 72 94 0.0 3.0 0.00 0.00 0.00 43 1008.8
20260504224940 72 51 0.0 5.0 0.00 0.00 0.00 42 1008.7
20260504224832 73 196 0.0 5.0 0.00 0.00 0.00 42 1008.7
20260504224730 72 169 0.0 5.0 0.00 0.00 0.00 43 1008.8
20260504224622 73 311 0.0 5.0 0.00 0.00 0.00 43 1008.8
20260504224518 73 346 0.0 5.0 0.00 0.00 0.00 43 1008.7
20260504224412 73 280 0.0 5.0 0.00 0.00 0.00 43 1008.7
20260504224308 73 252 0.0 5.0 0.00 0.00 0.00 43 1008.7
20260504224201 73 215 0.0 5.0 0.00 0.00 0.00 43 1008.7
20260504224056 73 128 0.0 5.0 0.00 0.00 0.00 42 1008.6
20260504223954 73 275 1.0 5.0 0.00 0.00 0.00 42 1008.6
20260504223848 73 194 1.0 5.0 0.00 0.00 0.00 42 1008.7
20260504223744 73 120 1.0 5.0 0.00 0.00 0.00 42 1008.6
20260504223638 73 215 1.0 5.0 0.00 0.00 0.00 42 1008.6
20260504223313 73 126 0.0 5.0 0.00 0.00 0.00 42 1008.6
20260504223207 73 126 0.0 5.0 0.00 0.00 0.00 41 1008.6
20260504223103 73 186 0.0 5.0 0.00 0.00 0.00 42 1008.6
20260504222957 73 219 0.0 3.0 0.00 0.00 0.00 40 1008.6
20260504222634 73 145 0.0 5.0 0.00 0.00 0.00 41 1008.6
20260504222528 73 45 0.0 5.0 0.00 0.00 0.00 41 1008.6
20260504221945 73 230 0.0 5.0 0.00 0.00 0.00 41 1008.6
20260504221401 74 195 0.0 5.0 0.00 0.00 0.00 39 1008.7
20260504221256 74 206 1.0 5.0 0.00 0.00 0.00 39 1008.7
20260504221151 74 160 1.0 5.0 0.00 0.00 0.00 39 1008.6
20260504221049 74 123 0.0 5.0 0.00 0.00 0.00 39 1008.6
20260504220944 74 164 1.0 5.0 0.00 0.00 0.00 40 1008.7
20260504220841 74 132 0.0 5.0 0.00 0.00 0.00 41 1008.8
20260504220736 74 240 0.0 4.0 0.00 0.00 0.00 40 1008.7
20260504220634 74 17 0.0 4.0 0.00 0.00 0.00 40 1008.7
20260504220530 74 138 0.0 4.0 0.00 0.00 0.00 40 1008.8
20260504220426 74 240 1.0 4.0 0.00 0.00 0.00 40 1008.7
20260504220322 74 229 1.0 4.0 0.00 0.00 0.00 39 1008.7
20260504220215 74 225 1.0 4.0 0.00 0.00 0.00 39 1008.8
20260504220107 74 225 1.0 8.0 0.00 0.00 0.00 39 1008.7
20260504220002 74 149 1.0 8.0 0.00 0.00 0.00 38 1008.7
20260504215637 74 205 1.0 8.0 0.00 0.00 0.00 38 1008.8
20260504215531 74 185 1.0 8.0 0.00 0.00 0.00 38 1008.8
20260504215423 74 233 0.0 8.0 0.00 0.00 0.00 39 1008.8
20260504215320 74 183 1.0 8.0 0.00 0.00 0.00 38 1008.8
20260504215216 74 158 1.0 8.0 0.00 0.00 0.00 37 1008.8
20260504215113 74 61 1.0 8.0 0.00 0.00 0.00 38 1008.8
20260504215009 74 182 1.0 8.0 0.00 0.00 0.00 38 1008.8
20260504214641 74 75 1.0 8.0 0.00 0.00 0.00 39 1008.8
20260504214536 74 204 1.0 8.0 0.00 0.00 0.00 38 1008.8
20260504214431 74 168 1.0 8.0 0.00 0.00 0.00 39 1008.8
20260504214323 74 182 1.0 8.0 0.00 0.00 0.00 39 1008.8
20260504214220 74 67 1.0 8.0 0.00 0.00 0.00 39 1008.8
20260504214117 74 182 1.0 7.0 0.00 0.00 0.00 39 1008.8
20260504214012 74 146 1.0 7.0 0.00 0.00 0.00 39 1008.7
20260504213909 74 157 1.0 7.0 0.00 0.00 0.00 39 1008.6
20260504213806 74 29 1.0 7.0 0.00 0.00 0.00 38 1008.6
20260504213702 74 139 1.0 7.0 0.00 0.00 0.00 39 1008.6
20260504213556 74 152 1.0 7.0 0.00 0.00 0.00 40 1008.7
20260504213449 74 187 1.0 7.0 0.00 0.00 0.00 40 1008.7
20260504213342 74 273 1.0 7.0 0.00 0.00 0.00 38 1008.7
20260504213018 74 52 1.0 3.0 0.00 0.00 0.00 38 1008.8
20260504212910 74 182 1.0 3.0 0.00 0.00 0.00 38 1008.8
20260504212805 74 134 1.0 3.0 0.00 0.00 0.00 38 1008.8
20260504212700 75 178 1.0 3.0 0.00 0.00 0.00 37 1008.8
20260504212556 75 229 1.0 3.0 0.00 0.00 0.00 38 1008.8
20260504212448 75 159 1.0 3.0 0.00 0.00 0.00 38 1008.8
20260504212347 75 276 1.0 3.0 0.00 0.00 0.00 37 1008.7
20260504212020 75 116 1.0 5.0 0.00 0.00 0.00 38 1008.8
20260504211917 75 185 1.0 5.0 0.00 0.00 0.00 38 1008.7
20260504211809 75 250 1.0 5.0 0.00 0.00 0.00 37 1008.8
20260504211703 75 351 1.0 5.0 0.00 0.00 0.00 37 1008.8
20260504211600 75 206 1.0 5.0 0.00 0.00 0.00 37 1008.8
20260504211455 75 90 1.0 5.0 0.00 0.00 0.00 37 1008.8
20260504211129 75 120 1.0 5.0 0.00 0.00 0.00 36 1008.8
20260504211028 75 122 1.0 5.0 0.00 0.00 0.00 36 1008.8
20260504210924 75 180 1.0 5.0 0.00 0.00 0.00 36 1008.9
20260504210820 75 182 1.0 5.0 0.00 0.00 0.00 36 1009.0
20260504210714 75 78 1.0 5.0 0.00 0.00 0.00 36 1008.9
20260504210607 75 205 1.0 5.0 0.00 0.00 0.00 37 1008.9
20260504210501 75 95 1.0 5.0 0.00 0.00 0.00 36 1008.9
20260504210357 75 164 1.0 5.0 0.00 0.00 0.00 37 1008.9
20260504210254 75 17 1.0 7.0 0.00 0.00 0.00 36 1008.9
20260504205928 75 136 1.0 7.0 0.00 0.00 0.00 36 1008.9
20260504205823 75 137 1.0 7.0 0.00 0.00 0.00 36 1008.9
20260504205717 75 46 1.0 7.0 0.00 0.00 0.00 37 1008.9
20260504205614 75 182 1.0 7.0 0.00 0.00 0.00 36 1008.9
20260504205511 75 187 1.0 7.0 0.00 0.00 0.00 36 1008.9
20260504205404 75 64 2.0 7.0 0.00 0.00 0.00 36 1008.9
20260504204825 75 80 1.0 7.0 0.00 0.00 0.00 34 1008.8
20260504204457 76 269 1.0 7.0 0.00 0.00 0.00 35 1008.8
20260504204355 76 211 1.0 7.0 0.00 0.00 0.00 35 1008.9
20260504204249 76 338 1.0 4.0 0.00 0.00 0.00 35 1008.9
20260504204143 76 212 1.0 4.0 0.00 0.00 0.00 35 1008.9
20260504204038 76 101 1.0 4.0 0.00 0.00 0.00 35 1008.9
20260504203934 76 91 1.0 4.0 0.00 0.00 0.00 37 1008.9
20260504203827 76 88 1.0 5.0 0.00 0.00 0.00 36 1008.8
20260504203721 75 244 1.0 5.0 0.00 0.00 0.00 36 1008.8
20260504203615 75 15 1.0 5.0 0.00 0.00 0.00 37 1008.8
20260504203512 75 219 1.0 5.0 0.00 0.00 0.00 36 1008.8
20260504203410 75 58 1.0 5.0 0.00 0.00 0.00 35 1008.8
20260504203303 75 215 1.0 5.0 0.00 0.00 0.00 36 1008.8
20260504203157 75 243 1.0 5.0 0.00 0.00 0.00 36 1008.8
20260504203052 75 212 1.0 5.0 0.00 0.00 0.00 36 1008.8
20260504202947 75 244 1.0 5.0 0.00 0.00 0.00 36 1008.8
20260504202844 75 192 1.0 5.0 0.00 0.00 0.00 36 1008.8
20260504202741 75 163 1.0 5.0 0.00 0.00 0.00 35 1008.8
20260504202637 75 211 1.0 5.0 0.00 0.00 0.00 37 1008.8
20260504202310 75 5 1.0 5.0 0.00 0.00 0.00 36 1008.9
20260504202207 75 169 1.0 5.0 0.00 0.00 0.00 35 1008.9
20260504201847 76 345 1.0 10.0 0.00 0.00 0.00 34 1009.0
20260504201743 76 136 1.0 10.0 0.00 0.00 0.00 34 1008.9
20260504201641 76 108 1.0 10.0 0.00 0.00 0.00 35 1008.9
20260504201534 75 55 1.0 10.0 0.00 0.00 0.00 35 1009.0
20260504201427 75 119 1.0 10.0 0.00 0.00 0.00 35 1009.0
20260504201320 75 263 1.0 10.0 0.00 0.00 0.00 35 1009.0
20260504201214 75 325 1.0 10.0 0.00 0.00 0.00 35 1009.0
20260504201110 75 254 1.0 10.0 0.00 0.00 0.00 34 1009.0
20260504201003 76 232 1.0 10.0 0.00 0.00 0.00 32 1009.0
20260504200901 76 255 1.0 10.0 0.00 0.00 0.00 33 1009.0
20260504200757 76 0 1.0 10.0 0.00 0.00 0.00 33 1009.0
20260504200653 76 187 1.0 10.0 0.00 0.00 0.00 33 1009.0
20260504200545 76 197 1.0 10.0 0.00 0.00 0.00 36 1009.1
20260504200439 76 153 1.0 10.0 0.00 0.00 0.00 36 1009.1
20260504200336 76 105 1.0 10.0 0.00 0.00 0.00 34 1009.1
20260504200230 76 145 1.0 10.0 0.00 0.00 0.00 35 1009.0
20260504195902 76 269 0.0 10.0 0.00 0.00 0.00 35 1009.0
20260504195755 76 245 0.0 7.0 0.00 0.00 0.00 35 1009.1
20260504195650 76 85 1.0 7.0 0.00 0.00 0.00 34 1009.1
20260504195545 76 146 1.0 7.0 0.00 0.00 0.00 35 1009.1
20260504195438 75 71 1.0 7.0 0.00 0.00 0.00 33 1009.1
20260504195115 76 54 1.0 7.0 0.00 0.00 0.00 34 1009.3
20260504195009 76 36 1.0 7.0 0.00 0.00 0.00 34 1009.3
20260504194904 76 259 1.0 7.0 0.00 0.00 0.00 33 1009.4
20260504194801 76 59 1.0 7.0 0.00 0.00 0.00 33 1009.3
20260504194657 76 107 1.0 7.0 0.00 0.00 0.00 33 1009.3
20260504194554 76 128 0.0 7.0 0.00 0.00 0.00 33 1009.2
20260504194446 76 122 0.0 4.0 0.00 0.00 0.00 34 1009.3
20260504194342 76 180 0.0 4.0 0.00 0.00 0.00 35 1009.4
20260504194235 76 242 0.0 4.0 0.00 0.00 0.00 36 1009.3
20260504194129 76 103 1.0 8.0 0.00 0.00 0.00 35 1009.4
20260504194024 76 115 1.0 8.0 0.00 0.00 0.00 34 1009.4
20260504193917 76 43 1.0 8.0 0.00 0.00 0.00 34 1009.4
20260504193809 76 341 1.0 8.0 0.00 0.00 0.00 33 1009.4
20260504193442 76 0 1.0 8.0 0.00 0.00 0.00 32 1009.6
20260504193338 76 240 1.0 8.0 0.00 0.00 0.00 33 1009.6
20260504193232 76 330 1.0 8.0 0.00 0.00 0.00 33 1009.5
20260504192906 76 216 1.0 8.0 0.00 0.00 0.00 35 1009.6
20260504192802 76 251 1.0 8.0 0.00 0.00 0.00 35 1009.6
20260504192659 76 121 1.0 8.0 0.00 0.00 0.00 34 1009.6
20260504192552 76 180 1.0 8.0 0.00 0.00 0.00 33 1009.6
20260504192448 76 248 1.0 8.0 0.00 0.00 0.00 33 1009.6
20260504192340 76 343 1.0 8.0 0.00 0.00 0.00 33 1009.6
20260504192234 77 119 1.0 8.0 0.00 0.00 0.00 32 1009.6
20260504192127 77 87 1.0 6.0 0.00 0.00 0.00 34 1009.7
20260504192022 77 213 1.0 6.0 0.00 0.00 0.00 33 1009.7
20260504191655 76 76 1.0 6.0 0.00 0.00 0.00 33 1009.7
20260504191331 76 119 1.0 6.0 0.00 0.00 0.00 32 1009.8
20260504190746 76 173 1.0 10.0 0.00 0.00 0.00 34 1010.0
20260504190641 76 347 1.0 10.0 0.00 0.00 0.00 34 1009.9
20260504190539 76 100 1.0 10.0 0.00 0.00 0.00 33 1009.9
20260504190433 76 239 2.0 10.0 0.00 0.00 0.00 33 1009.9
20260504190328 76 123 2.0 10.0 0.00 0.00 0.00 32 1009.9
20260504190221 76 238 2.0 10.0 0.00 0.00 0.00 33 1010.0
20260504190114 76 192 1.0 10.0 0.00 0.00 0.00 33 1010.0
20260504190011 77 151 1.0 10.0 0.00 0.00 0.00 33 1010.0
20260504185424 76 162 2.0 10.0 0.00 0.00 0.00 34 1010.2
20260504185320 76 225 2.0 10.0 0.00 0.00 0.00 33 1010.2
20260504185217 76 192 2.0 10.0 0.00 0.00 0.00 33 1010.2
20260504185115 76 222 2.0 10.0 0.00 0.00 0.00 31 1010.2
20260504185009 77 76 2.0 10.0 0.00 0.00 0.00 30 1010.1
20260504184901 77 9 1.0 8.0 0.00 0.00 0.00 32 1010.3
20260504184757 77 218 1.0 8.0 0.00 0.00 0.00 33 1010.3
20260504184650 77 95 1.0 8.0 0.00 0.00 0.00 33 1010.4
20260504184328 77 288 1.0 8.0 0.00 0.00 0.00 34 1010.4
20260504184223 77 105 1.0 6.0 0.00 0.00 0.00 32 1010.4
20260504183903 76 92 1.0 5.0 0.00 0.00 0.00 32 1010.4
20260504183757 77 261 1.0 8.0 0.00 0.00 0.00 32 1010.4
20260504183655 77 149 1.0 8.0 0.00 0.00 0.00 34 1010.4
20260504183549 76 58 0.0 8.0 0.00 0.00 0.00 32 1010.4
20260504183445 76 36 0.0 8.0 0.00 0.00 0.00 31 1010.5
20260504183342 77 281 1.0 8.0 0.00 0.00 0.00 33 1010.5
20260504183240 76 137 1.0 8.0 0.00 0.00 0.00 33 1010.6
20260504183138 77 105 1.0 8.0 0.00 0.00 0.00 34 1010.6
20260504183031 76 240 1.0 8.0 0.00 0.00 0.00 33 1010.6
20260504182929 77 323 1.0 8.0 0.00 0.00 0.00 33 1010.6
20260504182824 76 277 1.0 9.0 0.00 0.00 0.00 34 1010.7
20260504182722 76 240 1.0 9.0 0.00 0.00 0.00 34 1010.7
20260504182614 76 263 1.0 9.0 0.00 0.00 0.00 33 1010.7
20260504182512 76 355 1.0 9.0 0.00 0.00 0.00 33 1010.7
20260504182408 77 275 1.0 9.0 0.00 0.00 0.00 35 1010.8
20260504182306 76 51 1.0 9.0 0.00 0.00 0.00 34 1010.9
20260504181943 77 174 1.0 9.0 0.00 0.00 0.00 32 1010.9
20260504181842 77 333 1.0 9.0 0.00 0.00 0.00 33 1010.8
20260504181736 77 242 1.0 9.0 0.00 0.00 0.00 33 1010.9
20260504181633 77 185 1.0 9.0 0.00 0.00 0.00 37 1010.9
20260504181527 76 57 1.0 9.0 0.00 0.00 0.00 35 1011.0
20260504181423 76 139 1.0 9.0 0.00 0.00 0.00 34 1011.0
20260504181316 76 47 1.0 9.0 0.00 0.00 0.00 33 1011.0
20260504181209 76 140 1.0 9.0 0.00 0.00 0.00 34 1011.1
20260504181107 76 117 1.0 9.0 0.00 0.00 0.00 34 1011.1
20260504181002 75 199 1.0 9.0 0.00 0.00 0.00 35 1011.1
20260504180857 76 263 1.0 9.0 0.00 0.00 0.00 33 1011.1
20260504180752 76 209 1.0 7.0 0.00 0.00 0.00 34 1011.2
20260504180646 76 315 1.0 7.0 0.00 0.00 0.00 34 1011.1
20260504180320 76 78 1.0 7.0 0.00 0.00 0.00 34 1011.2
20260504180214 76 98 1.0 9.0 0.00 0.00 0.00 34 1011.2
20260504180111 76 10 1.0 9.0 0.00 0.00 0.00 32 1011.2
20260504180005 75 156 1.0 9.0 0.00 0.00 0.00 35 1011.2
20260504175422 76 251 1.0 9.0 0.00 0.00 0.00 33 1011.2
20260504175318 76 246 1.0 9.0 0.00 0.00 0.00 34 1011.2
20260504175212 76 140 1.0 9.0 0.00 0.00 0.00 35 1011.2
20260504175110 76 128 1.0 9.0 0.00 0.00 0.00 34 1011.2
20260504175006 76 206 1.0 9.0 0.00 0.00 0.00 33 1011.2
20260504174903 76 120 1.0 9.0 0.00 0.00 0.00 35 1011.2
20260504174758 76 107 1.0 9.0 0.00 0.00 0.00 33 1011.2
20260504174436 75 83 1.0 9.0 0.00 0.00 0.00 32 1011.3
20260504174334 75 312 1.0 9.0 0.00 0.00 0.00 33 1011.4
20260504174228 75 184 1.0 9.0 0.00 0.00 0.00 33 1011.3
20260504173903 76 308 0.0 8.0 0.00 0.00 0.00 33 1011.4
20260504173755 76 103 0.0 8.0 0.00 0.00 0.00 34 1011.4
20260504173652 75 86 1.0 8.0 0.00 0.00 0.00 35 1011.4
20260504173549 75 106 1.0 8.0 0.00 0.00 0.00 34 1011.5
20260504173442 75 111 1.0 8.0 0.00 0.00 0.00 36 1011.5
20260504173339 75 185 2.0 8.0 0.00 0.00 0.00 36 1011.5
20260504173234 74 92 1.0 8.0 0.00 0.00 0.00 34 1011.5
20260504173129 74 163 2.0 8.0 0.00 0.00 0.00 37 1011.5
20260504173022 74 49 2.0 8.0 0.00 0.00 0.00 39 1011.5
20260504172917 74 30 2.0 8.0 0.00 0.00 0.00 36 1011.5
20260504172810 74 28 2.0 8.0 0.00 0.00 0.00 35 1011.6
20260504172705 74 92 1.0 8.0 0.00 0.00 0.00 35 1011.6
20260504172602 74 74 1.0 8.0 0.00 0.00 0.00 34 1011.7
20260504172459 74 128 1.0 8.0 0.00 0.00 0.00 34 1011.7
20260504172353 75 252 1.0 12.0 0.00 0.00 0.00 34 1011.6
20260504172031 74 107 1.0 12.0 0.00 0.00 0.00 37 1011.6
20260504171926 74 34 1.0 12.0 0.00 0.00 0.00 33 1011.6
20260504171557 75 224 1.0 12.0 0.00 0.00 0.00 35 1011.8
20260504171455 75 148 2.0 12.0 0.00 0.00 0.00 36 1011.8
20260504171133 74 221 2.0 12.0 0.00 0.00 0.00 34 1011.9
20260504171027 74 225 2.0 12.0 0.00 0.00 0.00 33 1011.9
20260504170920 74 269 2.0 12.0 0.00 0.00 0.00 33 1011.8
20260504170815 74 177 2.0 12.0 0.00 0.00 0.00 34 1011.8
20260504170711 75 65 2.0 12.0 0.00 0.00 0.00 34 1011.8
20260504170128 77 265 1.0 5.0 0.00 0.00 0.00 34 1011.9
20260504160446 75 60 2.0 7.0 0.00 0.00 0.00 35 1012.8
20260504160342 75 141 2.0 7.0 0.00 0.00 0.00 34 1012.7
20260504160236 75 73 2.0 7.0 0.00 0.00 0.00 34 1012.7
20260504160133 75 251 1.0 7.0 0.00 0.00 0.00 33 1012.8
20260504151141 71 161 1.0 4.0 0.00 0.00 0.00 37 1013.5
20260504151038 71 203 0.0 4.0 0.00 0.00 0.00 37 1013.5
20260504150935 71 98 1.0 4.0 0.00 0.00 0.00 37 1013.5
20260504150829 71 119 1.0 4.0 0.00 0.00 0.00 36 1013.4
20260504150724 71 75 1.0 6.0 0.00 0.00 0.00 36 1013.5
20260504150622 71 124 0.0 6.0 0.00 0.00 0.00 37 1013.5
20260504150514 71 232 0.0 6.0 0.00 0.00 0.00 38 1013.5
20260504150408 71 159 0.0 6.0 0.00 0.00 0.00 38 1013.5
20260504141310 65 198 0.0 5.0 0.00 0.00 0.00 48 1013.7
20260504141207 65 221 0.0 5.0 0.00 0.00 0.00 46 1013.7
20260504140840 64 120 0.0 5.0 0.00 0.00 0.00 48 1013.8
20260504140738 64 171 0.0 5.0 0.00 0.00 0.00 49 1013.8
20260504140417 64 232 1.0 5.0 0.00 0.00 0.00 49 1013.8
20260504140310 63 28 1.0 5.0 0.00 0.00 0.00 48 1013.8
20260504140208 63 237 1.0 5.0 0.00 0.00 0.00 47 1013.8
20260504130800 53 65 0.0 2.0 0.00 0.00 0.00 68 1014.1
20260504130654 53 64 0.0 2.0 0.00 0.00 0.00 68 1014.1
20260504130547 53 191 0.0 2.0 0.00 0.00 0.00 69 1014.1
20260504130445 52 270 0.0 1.0 0.00 0.00 0.00 69 1014.2
20260504120215 46 78 0.0 1.0 0.00 0.00 0.00 80 1014.6
20260504110652 44 192 0.0 0.0 0.00 0.00 0.00 83 1014.7
20260504110548 44 192 0.0 0.0 0.00 0.00 0.00 83 1014.7
20260504110443 44 192 0.0 0.0 0.00 0.00 0.00 83 1014.7
20260504110337 44 204 0.0 0.0 0.00 0.00 0.00 83 1014.7
20260504110235 44 204 0.0 0.0 0.00 0.00 0.00 83 1014.7
20260504110129 44 204 0.0 0.0 0.00 0.00 0.00 83 1014.7
20260504100329 45 217 0.0 0.0 0.00 0.00 0.00 78 1014.5
20260504081925 46 290 0.0 0.0 0.00 0.00 0.00 78 1014.9
20260504081819 46 290 0.0 0.0 0.00 0.00 0.00 78 1014.9
20260504081710 46 290 0.0 0.0 0.00 0.00 0.00 78 1014.9
20260504081608 46 290 0.0 0.0 0.00 0.00 0.00 78 1014.9
20260504081505 46 290 0.0 0.0 0.00 0.00 0.00 78 1014.8
20260504081358 46 290 0.0 0.0 0.00 0.00 0.00 78 1014.8
20260504081251 46 290 0.0 0.0 0.00 0.00 0.00 78 1014.8
20260504081147 46 290 0.0 0.0 0.00 0.00 0.00 78 1014.8
20260504081046 46 290 0.0 0.0 0.00 0.00 0.00 78 1014.8
20260504080938 46 290 0.0 0.0 0.00 0.00 0.00 78 1014.9
20260504080610 46 290 0.0 0.0 0.00 0.00 0.00 78 1014.8
20260504080505 46 290 0.0 0.0 0.00 0.00 0.00 78 1014.8
20260504080359 46 290 0.0 0.0 0.00 0.00 0.00 78 1014.7
20260504080252 46 290 0.0 0.0 0.00 0.00 0.00 78 1014.8
20260504070327 46 283 0.0 0.0 0.00 0.00 0.00 76 1014.8
20260504070225 46 283 0.0 0.0 0.00 0.00 0.00 76 1014.9
20260504060205 45 283 0.0 0.0 0.00 0.00 0.00 75 1015.0
20260504050748 44 283 0.0 0.0 0.00 0.00 0.00 72 1015.4
20260504050644 44 283 0.0 0.0 0.00 0.00 0.00 72 1015.3
20260504050535 44 283 0.0 0.0 0.00 0.00 0.00 72 1015.3
20260504050428 44 283 0.0 0.0 0.00 0.00 0.00 72 1015.3
20260504050323 44 283 0.0 0.0 0.00 0.00 0.00 72 1015.3
20260504050001 44 283 0.0 0.0 0.00 0.00 0.00 71 1015.2
20260504045856 44 283 0.0 0.0 0.00 0.00 0.00 71 1015.2
20260504045534 44 283 0.0 0.0 0.00 0.00 0.00 70 1015.2
20260504045209 44 283 0.0 0.0 0.00 0.00 0.00 70 1015.2
20260504045106 44 283 0.0 0.0 0.00 0.00 0.00 71 1015.2
20260504044740 44 283 0.0 0.0 0.00 0.00 0.00 71 1015.2
20260504044637 44 283 0.0 0.0 0.00 0.00 0.00 71 1015.2
20260504044530 44 283 0.0 0.0 0.00 0.00 0.00 71 1015.2
20260504044427 44 283 0.0 0.0 0.00 0.00 0.00 70 1015.2
20260504044321 44 283 0.0 0.0 0.00 0.00 0.00 70 1015.3
20260504043514 44 283 0.0 0.0 0.00 0.00 0.00 70 1015.2
20260504043407 45 283 0.0 0.0 0.00 0.00 0.00 69 1015.2
20260504043301 44 283 0.0 0.0 0.00 0.00 0.00 69 1015.2
20260504043153 44 283 0.0 0.0 0.00 0.00 0.00 69 1015.2
20260504043047 45 282 0.0 0.0 0.00 0.00 0.00 69 1015.2
20260504042941 45 283 0.0 0.0 0.00 0.00 0.00 69 1015.2
20260504042838 45 283 0.0 0.0 0.00 0.00 0.00 69 1015.2
20260504042734 45 283 0.0 0.0 0.00 0.00 0.00 69 1015.2
20260504042627 45 283 0.0 0.0 0.00 0.00 0.00 69 1015.2
20260504042522 45 283 0.0 0.0 0.00 0.00 0.00 69 1015.1
20260504042419 45 283 0.0 0.0 0.00 0.00 0.00 69 1015.1
20260504042054 45 283 0.0 0.0 0.00 0.00 0.00 70 1015.2
20260504041947 45 283 0.0 0.0 0.00 0.00 0.00 71 1015.1
20260504041842 45 283 0.0 0.0 0.00 0.00 0.00 71 1015.1
20260504041737 45 283 0.0 0.0 0.00 0.00 0.00 70 1015.2
20260504041632 45 283 0.0 0.0 0.00 0.00 0.00 70 1015.1
20260504041309 45 283 0.0 0.0 0.00 0.00 0.00 69 1015.0
20260504041205 45 283 0.0 0.0 0.00 0.00 0.00 69 1015.0
20260504041100 45 283 0.0 0.0 0.00 0.00 0.00 69 1015.0
20260504040956 45 283 0.0 0.0 0.00 0.00 0.00 69 1015.0
20260504040853 45 283 0.0 0.0 0.00 0.00 0.00 69 1014.9
20260504040531 45 283 0.0 0.0 0.00 0.00 0.00 69 1014.9
20260504040428 45 283 0.0 0.0 0.00 0.00 0.00 70 1014.9
20260504040324 46 283 0.0 0.0 0.00 0.00 0.00 70 1014.9
20260504040218 46 283 0.0 0.0 0.00 0.00 0.00 69 1014.9
20260504040111 46 283 0.0 0.0 0.00 0.00 0.00 69 1014.9
20260504035748 46 283 0.0 0.0 0.00 0.00 0.00 69 1014.9
20260504035643 46 283 0.0 0.0 0.00 0.00 0.00 69 1015.0
20260504035541 46 283 0.0 0.0 0.00 0.00 0.00 68 1014.9
20260504035218 46 283 0.0 0.0 0.00 0.00 0.00 68 1015.0
20260504035111 46 283 0.0 0.0 0.00 0.00 0.00 69 1014.9
20260504035009 46 283 0.0 0.0 0.00 0.00 0.00 69 1015.0
20260504034647 46 283 0.0 0.0 0.00 0.00 0.00 68 1015.0
20260504034545 47 283 0.0 0.0 0.00 0.00 0.00 67 1015.0
20260504034441 47 283 0.0 0.0 0.00 0.00 0.00 67 1015.1
20260504034336 47 283 0.0 0.0 0.00 0.00 0.00 67 1015.0
20260504034234 47 283 0.0 0.0 0.00 0.00 0.00 67 1015.0
20260504034127 47 283 0.0 0.0 0.00 0.00 0.00 67 1015.0
20260504034022 47 283 0.0 0.0 0.00 0.00 0.00 66 1015.0
20260504033915 47 283 0.0 0.0 0.00 0.00 0.00 66 1015.0
20260504033810 47 283 0.0 0.0 0.00 0.00 0.00 66 1014.9
20260504033704 47 283 0.0 0.0 0.00 0.00 0.00 66 1015.0
20260504033601 47 283 0.0 0.0 0.00 0.00 0.00 66 1015.0
20260504033456 47 283 0.0 0.0 0.00 0.00 0.00 66 1015.0
20260504033348 47 283 0.0 0.0 0.00 0.00 0.00 65 1015.1
20260504033247 47 283 0.0 0.0 0.00 0.00 0.00 66 1015.2
20260504033139 47 283 0.0 0.0 0.00 0.00 0.00 66 1015.2
20260504032811 47 237 0.0 0.0 0.00 0.00 0.00 66 1015.2
20260504032707 47 237 0.0 0.0 0.00 0.00 0.00 66 1015.1
20260504032340 47 237 0.0 0.0 0.00 0.00 0.00 65 1015.2
20260504032238 47 237 0.0 0.0 0.00 0.00 0.00 66 1015.2
20260504032136 47 237 0.0 0.0 0.00 0.00 0.00 66 1015.2
20260504032031 47 237 0.0 0.0 0.00 0.00 0.00 66 1015.2
20260504031926 47 237 0.0 0.0 0.00 0.00 0.00 65 1015.1
20260504031819 47 237 0.0 0.0 0.00 0.00 0.00 65 1015.0
20260504031714 48 237 0.0 0.0 0.00 0.00 0.00 65 1015.0
20260504031610 48 237 0.0 0.0 0.00 0.00 0.00 64 1015.0
20260504031027 48 215 0.0 0.0 0.00 0.00 0.00 63 1014.9
20260504030923 48 215 0.0 0.0 0.00 0.00 0.00 63 1014.9
20260504030820 48 215 0.0 0.0 0.00 0.00 0.00 62 1014.9
20260504030714 48 215 0.0 0.0 0.00 0.00 0.00 62 1014.9
20260504030612 48 215 0.0 0.0 0.00 0.00 0.00 62 1014.9
20260504030504 48 215 0.0 0.0 0.00 0.00 0.00 62 1014.9
20260504030357 48 215 0.0 0.0 0.00 0.00 0.00 62 1014.9
20260504030250 48 215 0.0 0.0 0.00 0.00 0.00 62 1014.9
20260504030144 48 215 0.0 0.0 0.00 0.00 0.00 62 1014.9
20260504030040 48 215 0.0 0.0 0.00 0.00 0.00 63 1015.0
20260504025936 48 215 0.0 0.0 0.00 0.00 0.00 62 1015.0
20260504025831 48 215 0.0 0.0 0.00 0.00 0.00 62 1014.9
20260504025724 48 215 0.0 0.0 0.00 0.00 0.00 62 1014.9
20260504025356 48 215 0.0 0.0 0.00 0.00 0.00 59 1014.9
20260504025254 48 215 0.0 0.0 0.00 0.00 0.00 59 1014.9
20260504025148 48 215 0.0 0.0 0.00 0.00 0.00 59 1014.9
20260504025045 48 215 0.0 0.0 0.00 0.00 0.00 60 1014.9
20260504024939 48 215 0.0 0.0 0.00 0.00 0.00 60 1014.9
20260504024835 48 215 0.0 0.0 0.00 0.00 0.00 60 1014.9
20260504024732 48 215 0.0 0.0 0.00 0.00 0.00 60 1014.8
20260504024624 48 215 0.0 0.0 0.00 0.00 0.00 61 1014.8
20260504024520 48 215 0.0 0.0 0.00 0.00 0.00 62 1014.9
20260504023454 48 215 0.0 0.0 0.00 0.00 0.00 59 1014.8
20260504023347 48 215 0.0 0.0 0.00 0.00 0.00 59 1014.9
20260504023243 48 215 0.0 0.0 0.00 0.00 0.00 58 1014.8
20260504023140 49 215 0.0 0.0 0.00 0.00 0.00 59 1014.8
20260504023034 49 215 0.0 0.0 0.00 0.00 0.00 60 1014.8
20260504022932 49 215 0.0 0.0 0.00 0.00 0.00 60 1014.8
20260504022829 49 215 0.0 0.0 0.00 0.00 0.00 59 1014.8
20260504022723 49 215 0.0 0.0 0.00 0.00 0.00 59 1014.8
20260504022616 49 215 0.0 0.0 0.00 0.00 0.00 59 1014.8
20260504022512 49 215 0.0 0.0 0.00 0.00 0.00 59 1014.7
20260504022405 49 215 0.0 0.0 0.00 0.00 0.00 59 1014.8
20260504022304 49 215 0.0 0.0 0.00 0.00 0.00 59 1014.8
20260504022155 49 215 0.0 0.0 0.00 0.00 0.00 59 1014.7
20260504022052 49 215 0.0 0.0 0.00 0.00 0.00 59 1014.7
20260504021948 49 215 0.0 0.0 0.00 0.00 0.00 59 1014.7
20260504021842 49 215 0.0 0.0 0.00 0.00 0.00 59 1014.7
20260504021515 49 215 0.0 0.0 0.00 0.00 0.00 57 1014.8
20260504021411 49 215 0.0 0.0 0.00 0.00 0.00 57 1014.7
20260504021307 49 215 0.0 0.0 0.00 0.00 0.00 57 1014.7
20260504021201 49 215 0.0 0.0 0.00 0.00 0.00 57 1014.7
20260504021055 49 215 0.0 1.0 0.00 0.00 0.00 57 1014.8
20260504020949 49 215 0.0 0.0 0.00 0.00 0.00 57 1014.7
20260504020846 49 215 0.0 0.0 0.00 0.00 0.00 57 1014.7
20260504020743 49 215 0.0 0.0 0.00 0.00 0.00 57 1014.7
20260504020637 49 215 0.0 1.0 0.00 0.00 0.00 56 1014.7
20260504020532 49 215 0.0 1.0 0.00 0.00 0.00 56 1014.7
20260504020426 49 215 0.0 1.0 0.00 0.00 0.00 56 1014.7
20260504020323 49 215 0.0 1.0 0.00 0.00 0.00 56 1014.7
20260504015959 49 225 0.0 0.0 0.00 0.00 0.00 56 1014.7
20260504015855 49 225 0.0 0.0 0.00 0.00 0.00 56 1014.7
20260504015753 50 225 0.0 0.0 0.00 0.00 0.00 56 1014.6
20260504015423 50 217 0.0 0.0 0.00 0.00 0.00 55 1014.6
20260504015316 50 213 0.0 0.0 0.00 0.00 0.00 55 1014.5
20260504015213 50 213 0.0 0.0 0.00 0.00 0.00 56 1014.5
20260504014847 50 213 0.0 0.0 0.00 0.00 0.00 55 1014.5
20260504014523 50 213 0.0 0.0 0.00 0.00 0.00 55 1014.5
20260504014156 50 213 0.0 0.0 0.00 0.00 0.00 54 1014.4
20260504014053 51 213 0.0 0.0 0.00 0.00 0.00 54 1014.4
20260504013947 51 213 0.0 0.0 0.00 0.00 0.00 54 1014.4
20260504013624 51 213 0.0 0.0 0.00 0.00 0.00 54 1014.4
20260504013516 51 213 0.0 0.0 0.00 0.00 0.00 54 1014.4
20260504013409 51 213 0.0 0.0 0.00 0.00 0.00 54 1014.4
20260504013041 51 213 0.0 0.0 0.00 0.00 0.00 53 1014.4
20260504012938 51 213 0.0 0.0 0.00 0.00 0.00 53 1014.3
20260504012139 52 213 0.0 0.0 0.00 0.00 0.00 51 1014.2
20260504012032 52 213 0.0 0.0 0.00 0.00 0.00 51 1014.2
20260504011929 52 213 0.0 0.0 0.00 0.00 0.00 51 1014.1
20260504011823 52 213 0.0 0.0 0.00 0.00 0.00 51 1014.1
20260504011459 52 213 0.0 0.0 0.00 0.00 0.00 52 1014.1